Regional Weather Roundup
Issued by NWS Grand Forks, ND

Home | Current Version | Previous Version | Text Only | Print | Product List | Glossary Off
Versions: 1 2 3 4 5 6 7 8 9 10 11 12 13 14 15 16 17 18 19 20 21 22 23 24 25 26 27 28 29 30 31 32 33 34 35 36 37 38 39 40 41 42 43 44 45 46 47 48 49 50

000
ASUS43 KFGF 250731
RWRFGF
PRAIRIE TO PINES  WEATHER ROUNDUP
NATIONAL WEATHER SERVICE EASTERN NORTH DAKOTA/GRAND FORKS ND
200 AM CDT MON MAY 25 2015

 **SATELLITE DATA USED TO AUGMENT SKY COVER AT AUTOMATED STATIONS**
 *****  WEATHER ACROSS EASTERN NORTH DAKOTA  *****

CITY           SKY/WX    TMP DP  RH WIND       PRES   REMARKS
GRAND FORKS    MOCLDY    58  52  80 N3        29.83F
GRAND FRKS AFB MOCLDY    54  51  90 NW2       29.84F
GRAND FRKS NWS   N/A     57 N/A N/A MISG        N/A
DEVILS LAKE    CLOUDY    57  48  72 CALM      29.85F
FARGO          LGT RAIN  60  56  86 NE5       29.83F
WAHPETON ARPT  CLOUDY    55  54  94 N6        29.79F
$$

 ***** WEATHER ACROSS CENTRAL AND WESTERN NORTH DAKOTA  *****

CITY           SKY/WX    TMP DP  RH WIND       PRES   REMARKS
BISMARCK       LGT RAIN  56  54  93 NE5       29.88F
MINOT          CLOUDY    56  48  74 CALM      29.88F
JAMESTOWN      LGT RAIN  57  55  93 NW3       29.85F
MINOT AFB      CLOUDY    52  52  99 W2        29.87F
GARRISON         N/A     59  52  77 S7        29.88F
WILLISTON      MOCLDY    49  44  83 N5        29.89F
DICKINSON      CLOUDY    55  48  77 NE5       29.86F
HETTINGER      LGT RAIN  53  50  89 NE6       29.86F
$$

 *****  OTHER AIRPORT OBSERVATIONS IN OUR AREA  *****

CITY           SKY/WX    TMP DP  RH WIND       PRES   REMARKS
WALHALLA         N/A     52  52 100 CALM      29.86F
GRAFTON AIRPOR FAIR      57  50  77 CALM      29.85F
VALLEY CITY AR LGT RAIN  57  57 100 NW3       29.85F
CANDO          FAIR      55  50  82 N8        29.87F
CAVALIER APRT  FAIR      55  48  76 CALM      29.85F
GWINNER        NOT AVBL
SHEYENNE NWR     N/A     57  55  93 N3        29.95S
ROLLA          CLOUDY    54  46  76 NW5       29.90F
 ***** THE ABOVE OBSERVATIONS ARE NON NWS ARE NOT QUALITY
       CONTROLLED AND MAY MIS-REPORT RAIN FOR SNOW...
$$

  *****  WEATHER ACROSS NORTHERN MINNESOTA  *****

CITY           SKY/WX    TMP DP  RH WIND       PRES   REMARKS
FLAG ISLAND    MOCLDY    59  54  82 N5        29.84F
WARROAD        CLOUDY    54  52  94 CALM      29.85F
ROSEAU         CLOUDY    55  50  82 CALM      29.85F
HALLOCK        MOCLDY    55  50  82 CALM      29.84F
THF RVR FALLS  CLOUDY    59  48  67 CALM      29.85F
BAUDETTE       CLOUDY    56  53  90 CALM      29.84F
WASKISH        CLOUDY    55  54  94 CALM      29.85F
CROOKSTON      CLOUDY    61  52  72 S5        29.85S
STEPHEN NDAWN    N/A     55  48  76 NE2         N/A
GREENBUSH NDAW   N/A     55  55 100 N2          N/A
$$
  *****  WEATHER ACROSS CENTRAL AND WEST MINNESOTA  *****

CITY           SKY/WX    TMP DP  RH WIND       PRES   REMARKS
FOSSTON        LGT RAIN  57  52  82 CALM      29.86S
BEMIDJI        DRIZZLE   56  53  88 CALM      29.85F
PARK RAPIDS    LGT RAIN  57  54  89 NE5       29.83F
ELBOW LAKE     DRIZZLE   57  56  98 NE6       29.76F
WADENA         LGT RAIN  55  55 100 NE9       29.78F
DETROIT LAKES  RAIN      55  54  94 NE5       29.83F
MOORHEAD       LGT RAIN  57  55  94 N6        29.84S
FERGUS FALLS   DRIZZLE   57  57 100 E12       29.79F
MORRIS MN      LGT RAIN  57  57 100 NE7       29.74F
STAPLES        LGT RAIN  55  55 100 NE5       29.78F
$$
  *****  WEATHER ELSEWHERE ACROSS MINNESOTA  *****

CITY           SKY/WX    TMP DP  RH WIND       PRES   REMARKS
DULUTH         LGT RAIN  58  55  90 E10       29.84F FOG
INTRNTL FALLS  CLOUDY    57  49  74 SE3       29.85F
ELY            CLOUDY    57  48  72 CALM      29.88F
CLOQUET        LGT RAIN N/A N/A N/A E8        29.82F
WHEATON        DRIZZLE   55  54  94 N5        29.79F
BRAINERD       LGT RAIN  57  56  96 NE10      29.80F FOG
HIBBING        LGT RAIN  55  52  89 CALM      29.87F
ALEXANDRIA     LGT RAIN  57  57 100 NE12      29.77F
SAINT CLOUD    LGT RAIN  57  56  96 E8        29.74F
MINNEAPOLIS    LGT RAIN  58  58 100 E12       29.72F FOG
$$

  *****  WEATHER ACROSS SOUTH DAKOTA  *****

CITY           SKY/WX    TMP DP  RH WIND       PRES   REMARKS
SIOUX FALLS    CLOUDY    59  58  96 NW3       29.74F
BROOKINGS      CLOUDY    57  55  94 NW3       29.75F
WATERTOWN      LGT RAIN  57  55  93 CALM      29.77F FOG
HURON          CLOUDY    58  57  97 N6        29.77S FOG
SISSETON         N/A     57  57 100 NE8       29.77F
ABERDEEN       RAIN      57  56  96 N9        29.80F FOG
MITCHELL       LGT RAIN  59  58  96 N5        29.76F FOG
PIERRE         LGT RAIN  57  57 100 CALM      29.79S FOG
MOBRIDGE       LGT RAIN  57  57 100 NE9       29.79F
RAPID CITY     CLOUDY    52  51  97 N9        29.84F
$$

  *****  SOME WEATHER IN NEARBY STATES *****

CITY           SKY/WX    TMP DP  RH WIND       PRES   REMARKS
GLASGOW MT     PTCLDY    54  43  66 SE5       29.90F
GREAT FALLS MT CLEAR     48  42  80 CALM      29.94F
CHEYENNE WY    RAIN      45  41  86 N9        29.90R FOG
SCOTTSBLUFF NE LGT RAIN  52  49  89 E5        29.84F
OMAHA NE       CLOUDY    65  60  84 SW5       29.77S
DES MOINES IA  LGT RAIN  64  61  90 SW10      29.76F
DAVENPORT IA   CLOUDY    67  64  90 SE7       29.78F
CHICAGO IL     CLOUDY    72  62  71 S16G24    29.86F
EAU CLAIRE WI  RAIN      57  55  93 E5        29.75F FOG
LA CROSSE WI   CLOUDY    61  59  93 SE3       29.74F FOG
$$

  *****  SOME NATIONAL WEATHER *****

CITY           SKY/WX    TMP DP  RH WIND       PRES   REMARKS
LA GUARDIA NY  PTCLDY    66  50  56 SW6       30.25S
RALEIGH NC     CLEAR     64  56  75 SW5       30.33S
ATLANTA GA     PTCLDY    69  58  67 SE7       30.26R
NEW ORLEANS LA CLOUDY    75  70  84 SE7       30.03R THUNDER
OKLAHOMA CITY  PTCLDY    65  63  93 SE14      29.85F
ALBUQUERQUE NM CLOUDY    53  46  77 E5        30.00F
SALT LAKE CITY MOCLDY    53  48  83 S10       29.92F
LOS ANGELES CA PTCLDY    59  54  83 W7        29.97F
BOISE ID       CLEAR     60  46  59 SE16      29.87S
SEATTLE WA     CLOUDY    55  48  77 SW5       30.03S
$$

*** WEATHER ACROSS MANITOBA...SASKATCHEWAN AND ONTARIO ***
                ***ONTARIO***

CITY           SKY/WX    TMP DP  RH WIND       PRES   REMARKS
GERALDTON      CLEAR     46  41  81 S5        29.91F
THUNDER BAY    CLOUDY    50  43  76 E7        29.90F
SIOUX LOOKOUT  PTCLDY    45  43  93 CALM      29.88S
TORONTO        LGT RAIN  66  52  59 E3        30.13F
BIG TROUT LK   CLEAR     41  32  70 NE5       29.94F
PICKLE LAKE    NOT AVBL
DRYDEN         CLEAR     55  46  71 E6        29.86F
KENORA         PTCLDY    63  45  51 N6        29.87F
$$
                *** MANITOBA***

CITY           SKY/WX    TMP DP  RH WIND       PRES   REMARKS
BRANDON        PTCLDY    50  41  71 NW2       29.90F
DAUPHIN        PTCLDY    68  39  34 SW14      29.84F
ISLAND LAKE    PTCLDY    50  39  66 E6        29.88S
PILOT MOUND      N/A     55  43  62 NW3         N/A
THE PAS        CLEAR     55  43  62 SE3       29.86F
THOMPSON       PTCLDY    45  36  70 NE8       29.89F
WINNIPEG       CLEAR     59  45  58 E2        29.88S
LYNN LAKE      CLEAR     45  36  70 E5        29.89F
CHURCHILL      PTCLDY    27  25  93 SW5       30.01F WCI  21
$$
                ***SASKATCHEWAN***

CITY           SKY/WX    TMP DP  RH WIND       PRES   REMARKS
ESTEVAN        PTCLDY    52  46  82 SE5       29.91F
KINDERSLEY     MOCLDY    57  37  47 N5        29.91S
LLOYDMINSTER   MOCLDY    57  37  47 S9        29.89F
PRINCE ALBERT  CLEAR     50  43  76 CALM      29.87F
REGINA         PTCLDY    55  41  58 CALM      29.90S
YORKTON        CLEAR     55  45  67 E5        29.88S
N. BATTLEFORD  CLEAR     55  41  58 SE3       29.90F
LA RONGE       CLEAR     46  36  66 CALM      29.84F
SASKATOON      PTCLDY    52  39  62 S5        29.89F
SWIFT CURRENT  MOCLDY    70  30  23 VRB6      29.91F
$$
NOTE: THESE ARE AUTOMATED STATIONS WITH LIMITED QUALITY CONTROL
      "FAIR" INDICATES FEW OR NO CLOUDS BELOW 12,000 FEET WITH NO
      SIGNIFICANT WEATHER AND/OR OBSTRUCTIONS TO VISIBILITY.
      SKY/WX - SKY CONDITION AND SIGNIFICANT WEATHER.
      TMP - AIR TEMPERATURE.    DP   - DEWPOINT TEMPERATURE.
      RH  - RELATIVE HUMIDITY.  PRES - PRESSURE.
      HX  - HEAT INDEX.         WCI  - WIND CHILL INDEX.
$


USA.gov is the U.S. government's official web portal to all federal, state and local government web resources and services.